DELTA 1 DEB

Satellite information

Favourite Embed

Satellite Type and Status

DEBRISIN ORBIT

Key statistics

Satellite DELTA 1 DEB at a glance.

Uptime

18228

Days in orbit

Revolutions

≈ 12.7

Per day

Orbit

SSO

Sun Synchronous Orbit

Inclination

99.6

Latest

Satellite identification and parameters

Extended collection of information and parameters for DELTA 1 DEB.

Object identification

Identified? True

Debris? True

Object name: DELTA 1 DEB

International designator: 1975-052LR

Object number (NORAD): 42632

Object ID (CCSDS): 42632

Country: UNITED STATES OF AMERICA (US)

Current information (Y/N): Y

RCS size: SMALL

Orbital parameters

Period: 113.389 minutes

Inclination: 99.585 deg

SMA: 7760.219 km

Apoapsis: 1692.278 km

Periapsis: 1071.891 km

RAAN: 251.2444 deg

Eccentricy: 0.0399723

Argument of periapsis: 196.676 deg

Mean anomaly: 162.0859 deg

Mean motion: 12.69965036 rev/day

Mean motion (dot): 0.00000447 rev/day2

B* drag term: 0.001762 1/REarth

Two-line elements (TLE)

Creation date: May 6, 2025, 3:54 a.m.

Reference frame: TEME

Reference center: EARTH

Epoch: May 5, 2025, 7:14 a.m. UTC

TLE line 0: 0 DELTA 1 DEB

TLE line 1: 1 42632U 75052LR 25125.30206478 .00000447 00000-0 17620-2 0 9994

TLE line 2: 2 42632 99.5850 251.2444 0399723 196.6760 162.0859 12.69965036488542

Live tracking on map

Real-time ground track for satellite DELTA 1 DEB.

In-orbit conjunctions

A list of the most updated potential collisions computed for object DELTA 1 DEB.

Target Orbit TCA Probability of collision Miss distance Type
NIMBUS 6 SSO 2025-01-05 15:31:04 0.001147045 41.0 (m) PAYLOAD

Associated space launch

Experimental meteorological satellite

DELTA 1 DEB was lifted into orbit during the mission ‘Delta 2910 | Nimbus 6’, on board a Delta 2910 space rocket.

The launch took place on June 12, 1975, 8:12 a.m. from Space Launch Complex 2W.

For more information about the launch, click the button.

Launch to space Delta 2910 | Nimbus 6
Delta 2910 | Nimbus 6

Agency: N/A

Status: Launch Successful

Launch date: June 12, 1975, 8:12 a.m. UTC

Rocket: Delta 2910

Launch pad: Space Launch Complex 2W

Location: Vandenberg SFB, CA, USA

...

Latest news about this satellite

There are no fresh news available about this satellite. Check back as we update our databases every day.


Newsletter sign-up

Weekly statistics, charts and insights to help you stay on top of the space industry.